Weather History for KAUW - April, 2013

Change the Weather History Date:

Saturday, April 6, 2013

  Actual Average Record
Temperature  
Mean Temperature 38 °F 40 °F  
Max Temperature 46 °F 50 °F 85 °F (1991)
Min Temperature 30 °F 29 °F 8 °F (1979)
Degree Days  
Heating Degree Days 27 25  
Month to date heating degree days 201 159  
Since 1 July heating degree days 7277 7380  
Cooling Degree Days 0 0  
Month to date cooling degree days 0 0  
Year to date cooling degree days 0 0  
Moisture  
Dew Point 31 °F    
Average Humidity 79    
Maximum Humidity 100    
Minimum Humidity 58    
Precipitation  
Precipitation 0.41 in 0.09 in 0.58 in (1929)
Month to date precipitation 0.47 0.46  
Year to date precipitation 5.80 4.16  
Snow  
Snow 0.60 in 0.20 in 8.50 in (1914)
Month to date snowfall 1.5 1.1  
Since 1 July snowfall 70.2 56.4  
Snow Depth 2.00 in    
Sea Level Pressure  
Sea Level Pressure 29.79 in    
Wind  
Wind Speed 11 mph (ESE)    
Max Wind Speed 21 mph    
Max Gust Speed 25 mph    
Visibility 5 miles    
Events Rain , Snow    
T = Trace of Precipitation, MM = Missing Value Source: NWS Daily Summary

Daily Weather History Graph

Daily Weather History Graph

Search for Another Location

Airport or City:

Trip Planner

Search our weather history database for the weather conditions in past years. The results will help you decide how hot, cold, wet, or windy it might be!

Date:

Astronomy

Apr. 06, 2013 Rise Set
Actual Time 6:29 AM CDT 7:32 PM CDT
Civil Twilight 5:59 AM CDT 8:02 PM CDT
Nautical Twilight 5:23 AM CDT 8:38 PM CDT
Astronomical Twilight 4:46 AM CDT 9:16 PM CDT
Moon 4:22 AM CDT (4/6) 3:53 PM CDT (4/6)
Length of Visible Light 14h 03m
Length of Day
13h 03m
Waning Crescent, 15% of the Moon is Illuminated
Apr 6
Waning Crescent
Apr 10
New
Apr 18
First Quarter
Apr 25
Full
May 2
Last Quarter

Hourly Weather History & Observations

Time (CDT) Temp. Windchill Dew Point Humidity Pressure Visibility Wind Dir Wind Speed Gust Speed Precip Events Conditions
12:41 AM 30.2 °F 23.4 °F 28.4 °F 93% 30.08 in 1.5 mi SE 6.9 mph - 0.01 in Snow Light Snow
12:54 AM 30.0 °F 22.4 °F 28.9 °F 96% 30.13 in 1.8 mi SE 8.1 mph - 0.01 in Snow Light Snow
1:04 AM 30.2 °F 22.6 °F 28.4 °F 93% 30.07 in 2.0 mi SE 8.1 mph - 0.00 in Snow Light Snow
1:07 AM 30.2 °F 22.6 °F 28.4 °F 93% 30.07 in 3.0 mi SE 8.1 mph - 0.00 in Snow Light Snow
1:12 AM 30.2 °F 22.6 °F 28.4 °F 93% 30.07 in 2.5 mi ESE 8.1 mph - 0.00 in Snow Light Snow
1:22 AM 30.2 °F 21.9 °F 28.4 °F 93% 30.06 in 3.0 mi ESE 9.2 mph - 0.00 in Snow Light Snow
1:27 AM 30.2 °F 21.3 °F 28.4 °F 93% 30.06 in 1.8 mi ESE 10.4 mph - 0.01 in Snow Light Snow
1:43 AM 30.2 °F 21.9 °F 28.4 °F 93% 30.06 in 0.8 mi SE 9.2 mph - 0.01 in Snow Light Snow
1:54 AM 30.9 °F 22.2 °F 28.9 °F 92% 30.10 in 1.0 mi ESE 10.4 mph - 0.02 in Snow Light Snow
2:14 AM 30.2 °F 20.8 °F 28.4 °F 93% 30.04 in 1.2 mi ESE 11.5 mph - 0.00 in Snow Light Snow
2:41 AM 30.2 °F 18.9 °F 26.6 °F 86% 30.02 in 2.0 mi ESE 16.1 mph - 0.00 in Snow Light Snow
2:48 AM 30.2 °F 19.8 °F 26.6 °F 86% 30.01 in 1.8 mi ESE 13.8 mph - 0.00 in Snow Light Snow
2:54 AM 30.0 °F 20.5 °F 27.0 °F 88% 30.07 in 2.0 mi SE 11.5 mph - 0.00 in Snow Light Snow
3:04 AM 30.2 °F 20.2 °F 26.6 °F 86% 30.00 in 5.0 mi ESE 12.7 mph - 0.00 in Snow Light Snow
3:54 AM 30.0 °F 19.5 °F 27.0 °F 88% 30.04 in 6.0 mi ESE 13.8 mph - 0.00 in Snow Light Snow
4:40 AM 30.2 °F 21.3 °F 26.6 °F 86% 29.97 in 9.0 mi SE 10.4 mph - 0.00 in   Overcast
4:54 AM 30.0 °F 19.5 °F 27.0 °F 88% 30.02 in 10.0 mi SE 13.8 mph - 0.00 in   Overcast
5:54 AM 30.0 °F 19.5 °F 27.0 °F 88% 29.99 in 8.0 mi SE 13.8 mph - 0.00 in   Overcast
6:19 AM 30.2 °F 18.5 °F 26.6 °F 86% 29.92 in 9.0 mi SE 17.3 mph 23.0 mph N/A   Overcast
6:54 AM 30.9 °F 19.4 °F 27.0 °F 85% 29.96 in 10.0 mi SE 17.3 mph 24.2 mph N/A   Overcast
7:03 AM 30.2 °F 18.5 °F 26.6 °F 86% 29.91 in 10.0 mi SE 17.3 mph 24.2 mph 0.00 in   Overcast
7:54 AM 30.9 °F 20.2 °F 26.1 °F 82% 29.93 in 10.0 mi SE 15.0 mph 24.2 mph 0.00 in   Mostly Cloudy
8:54 AM 33.1 °F 22.6 °F 27.0 °F 78% 29.90 in 10.0 mi SE 16.1 mph 24.2 mph N/A   Mostly Cloudy
9:54 AM 34.0 °F 24.2 °F 27.0 °F 75% 29.86 in 10.0 mi ESE 15.0 mph 20.7 mph N/A   Scattered Clouds
10:54 AM 36.0 °F 26.7 °F 28.0 °F 73% 29.82 in 10.0 mi SE 15.0 mph 19.6 mph N/A   Mostly Cloudy
11:54 AM 37.9 °F 28.9 °F 28.9 °F 70% 29.78 in 10.0 mi SE 16.1 mph 21.9 mph N/A   Overcast
12:54 PM 42.1 °F 34.5 °F 30.9 °F 65% 29.73 in 10.0 mi SSE 15.0 mph 21.9 mph N/A   Mostly Cloudy
1:54 PM 44.1 °F 37.7 °F 30.9 °F 60% 29.69 in 10.0 mi SSE 12.7 mph - N/A   Clear
2:54 PM 45.0 °F 39.3 °F 32.0 °F 60% 29.65 in 10.0 mi SSE 11.5 mph - 0.00 in Rain Light Rain
3:54 PM 44.1 °F 39.5 °F 32.0 °F 63% 29.62 in 8.0 mi SE 8.1 mph - 0.00 in Rain Light Rain
4:54 PM 43.0 °F 40.3 °F 34.0 °F 71% 29.60 in 9.0 mi East 4.6 mph - 0.01 in Rain Light Rain
5:54 PM 41.0 °F 35.8 °F 35.1 °F 79% 29.57 in 4.0 mi ESE 8.1 mph - 0.02 in Rain Light Rain
6:47 PM 39.2 °F 34.2 °F 37.4 °F 93% 29.51 in 2.5 mi ESE 6.9 mph - 0.05 in Rain Light Rain
6:54 PM 39.0 °F 34.0 °F 36.0 °F 89% 29.55 in 3.0 mi East 6.9 mph - 0.06 in Rain Light Rain
7:54 PM 37.9 °F - 37.0 °F 97% 29.53 in 3.0 mi Calm Calm - 0.03 in Rain Rain
8:06 PM 37.4 °F 34.9 °F 37.4 °F 100% 29.48 in 2.5 mi East 3.5 mph - 0.03 in Rain Rain
8:54 PM 37.9 °F 33.5 °F 37.0 °F 97% 29.51 in 2.0 mi East 5.8 mph - 0.10 in Rain Light Rain
9:20 PM 37.4 °F 34.9 °F 37.4 °F 100% 29.47 in 1.8 mi ESE 3.5 mph - 0.03 in Rain Light Rain
9:30 PM 37.4 °F 33.8 °F 37.4 °F 100% 29.46 in 1.8 mi SE 4.6 mph - 0.05 in Rain Light Rain
9:44 PM 37.4 °F - 37.4 °F 100% 29.47 in 1.8 mi Calm Calm - 0.06 in Rain Light Rain
9:54 PM 37.9 °F - 37.0 °F 97% 29.52 in 0.8 mi Calm Calm - 0.07 in Rain Light Rain
10:10 PM 37.4 °F 31.4 °F 37.4 °F 100% 29.48 in 1.0 mi NW 8.1 mph - 0.01 in Rain Light Rain
10:19 PM 39.2 °F 33.6 °F 37.4 °F 93% 29.48 in 2.0 mi NW 8.1 mph - 0.02 in Rain Light Rain
10:28 PM 39.2 °F 33.0 °F 37.4 °F 93% 29.48 in 3.0 mi NW 9.2 mph - 0.03 in Rain Light Rain
10:50 PM 39.2 °F 33.6 °F 37.4 °F 93% 29.49 in 4.0 mi NW 8.1 mph - 0.03 in Rain Light Rain
10:54 PM 39.0 °F 32.3 °F 37.0 °F 93% 29.53 in 4.0 mi NW 10.4 mph - 0.03 in Rain Light Rain
11:11 PM 37.4 °F 30.3 °F 37.4 °F 100% 29.50 in 4.0 mi NW 10.4 mph - 0.01 in Rain Light Rain
11:54 PM 37.9 °F 30.9 °F 36.0 °F 93% 29.56 in 6.0 mi NW 10.4 mph - 0.01 in Rain Light Rain